TimeEST,TemperatureF,Dew PointF,Humidity,Sea Level PressureIn,VisibilityMPH,Wind Direction,Wind SpeedMPH,Gust SpeedMPH,PrecipitationIn,Events,Conditions,WindDirDegrees,DateUTC
12:52 AM,3.9,-4.0,70,30.32,10.0,WSW,6.9,-,N/A,,Mostly Cloudy,240,2013-01-23 05:52:00
1:52 AM,3.0,-4.0,73,30.33,10.0,West,4.6,-,N/A,,Mostly Cloudy,270,2013-01-23 06:52:00
2:04 AM,3.2,-4.0,72,30.28,10.0,West,3.5,-,N/A,,Overcast,270,2013-01-23 07:04:00
2:22 AM,3.2,-4.0,72,30.28,10.0,Calm,Calm,-,N/A,,Mostly Cloudy,0,2013-01-23 07:22:00
2:52 AM,1.0,-4.0,79,30.34,10.0,Calm,Calm,-,N/A,,Partly Cloudy,0,2013-01-23 07:52:00
3:09 AM,1.4,-4.0,78,30.28,10.0,Calm,Calm,-,N/A,,Mostly Cloudy,0,2013-01-23 08:09:00
3:45 AM,1.4,-4.0,78,30.28,10.0,Calm,Calm,-,N/A,,Mostly Cloudy,0,2013-01-23 08:45:00
3:52 AM,1.9,-2.9,80,30.33,10.0,Calm,Calm,-,N/A,,Mostly Cloudy,0,2013-01-23 08:52:00
4:52 AM,3.9,-2.0,76,30.32,10.0,Calm,Calm,-,N/A,,Overcast,0,2013-01-23 09:52:00
5:14 AM,1.4,-2.2,85,30.27,10.0,Calm,Calm,-,N/A,,Scattered Clouds,0,2013-01-23 10:14:00
5:52 AM,5.0,-2.0,73,30.32,10.0,WSW,4.6,-,N/A,,Overcast,240,2013-01-23 10:52:00
6:52 AM,3.9,-2.0,76,30.33,10.0,SSW,3.5,-,N/A,,Overcast,200,2013-01-23 11:52:00
7:52 AM,5.0,-0.9,76,30.33,10.0,SSW,3.5,-,N/A,,Overcast,210,2013-01-23 12:52:00
8:52 AM,6.1,-0.0,76,30.32,10.0,SSW,3.5,-,N/A,,Overcast,210,2013-01-23 13:52:00
9:52 AM,10.0,1.9,70,30.30,10.0,SW,4.6,-,N/A,,Overcast,230,2013-01-23 14:52:00
10:52 AM,12.9,3.0,65,30.30,10.0,WSW,12.7,-,N/A,,Overcast,240,2013-01-23 15:52:00
11:52 AM,15.1,3.0,59,30.28,10.0,WSW,10.4,-,N/A,,Overcast,240,2013-01-23 16:52:00
12:52 PM,16.0,3.0,57,30.24,10.0,West,10.4,-,N/A,,Mostly Cloudy,260,2013-01-23 17:52:00
1:52 PM,17.1,1.9,52,30.21,10.0,West,15.0,-,N/A,,Overcast,260,2013-01-23 18:52:00
2:52 PM,17.1,-0.0,47,30.19,10.0,SW,16.1,19.6,N/A,,Overcast,230,2013-01-23 19:52:00
3:52 PM,17.1,1.0,50,30.17,10.0,SW,12.7,-,N/A,,Overcast,230,2013-01-23 20:52:00
4:52 PM,17.1,3.0,54,30.15,10.0,SW,9.2,-,N/A,,Overcast,230,2013-01-23 21:52:00
5:52 PM,15.1,3.9,61,30.14,10.0,WSW,8.1,-,N/A,,Overcast,240,2013-01-23 22:52:00
6:52 PM,15.1,5.0,64,30.14,10.0,WSW,5.8,-,N/A,,Overcast,240,2013-01-23 23:52:00
7:52 PM,15.1,7.0,70,30.13,10.0,SW,4.6,-,N/A,,Overcast,220,2013-01-24 00:52:00
8:52 PM,15.1,9.0,77,30.13,4.0,SW,4.6,-,0.00,Snow,Light Snow,230,2013-01-24 01:52:00
9:52 PM,14.0,10.0,84,30.11,4.0,South,4.6,-,0.00,Snow,Light Snow,190,2013-01-24 02:52:00
10:25 PM,15.8,10.4,79,30.06,2.5,SSW,3.5,-,0.00,Snow,Light Snow,200,2013-01-24 03:25:00
10:52 PM,15.1,10.9,84,30.10,2.5,Calm,Calm,-,0.01,Snow,Light Snow,0,2013-01-24 03:52:00
11:04 PM,15.8,10.4,79,30.06,3.0,Calm,Calm,-,0.00,Snow,Light Snow,0,2013-01-24 04:04:00
11:50 PM,15.8,10.4,79,30.07,4.0,West,3.5,-,0.00,Snow,Light Snow,260,2013-01-24 04:50:00
11:52 PM,15.1,10.9,84,30.11,4.0,WSW,3.5,-,0.00,Snow,Light Snow,250,2013-01-24 04:52:00